User: anonymous   Login
Location: Unspecified
(0.0000°N, 0.0000°E)
Time: 00:24:46
(UTC+00:00)
Language:

Kosmos-2061 - Orbit

View from above orbital plane
View from above orbital plane
View from above satellite
View from above satellite

Ground track
Ground track

The orbit data is extracted from the following two-line orbital elements,

1 20527U 90023A   18201.40524222  .00000034  00000-0  20726-4 0  9991
2 20527  82.9382 141.0395 0031334   7.2624 112.0970 13.72137513418914
Epoch (UTC): 20 July 2018 09:43:32
Eccentricity: 0.0031334
inclination: 82.9382°
perigee height: 969 km
apogee height: 1015 km
right ascension of ascending node: 141.0395°
argument of perigee: 7.2624°
revolutions per day: 13.72137513
mean anomaly at epoch: 112.0970°
orbit number at epoch: 41891

The dashed part of the orbit path shows where the satellite is in the earth's shadow,  

DLR